User: anonymous   Login
Location: Barcelona
(41.3830°N, 2.1830°E)
Time: 21:14:41
(UTC+02:00)
Language:

ISS - Orbit

View from above orbital plane
View from above orbital plane
View from above satellite
View from above satellite

Ground track
Ground track

The orbit data is extracted from the following two-line orbital elements,

1 25544U 98067A   20100.25920596  .00016717  00000-0  10270-3 0  9042
2 25544  51.6405 329.5705 0003750  96.9711 263.1866 15.48673033 21322
Epoch (UTC): 09 April 2020 06:13:15
Eccentricity: 0.0003750
inclination: 51.6405°
perigee height: 418 km
apogee height: 423 km
right ascension of ascending node: 329.5705°
argument of perigee: 96.9711°
revolutions per day: 15.48673033
mean anomaly at epoch: 263.1866°
orbit number at epoch: 2132

The dashed part of the orbit path shows where the satellite is in the earth's shadow,  

DLR